#timestamp,LO_Frequency,Hit,StdDev 
1648418415.7,286046998.4,N
1648418435.5,286046998.1,N
1648418455.3,286047000.5,N
1648418475.2,286047002.7,N
1648418495.0,286047002.7,N
1648418495.9,286047002.7,N
1648418515.8,286047002.4,N
1648418535.6,286047002.3,N
1648418555.4,286047002.5,N
1648418575.3,286046999.7,N
1648418595.1,286047002.1,N
1648418615.8,286047002.2,N
1648418635.7,286047000.4,N
1648418655.5,286047002.5,N
1648418675.4,286047000.8,N
1648418695.2,286046998.2,N
1648418715.0,286047001.1,N
1648418715.9,286047001.1,N
1648418735.8,286047002.4,N
1648418755.6,286047001.3,N
1648418775.4,286046999.9,N
1648418795.3,286046999.7,N
1648418815.1,286047000.6,N
1648418835.9,286047002.4,N
1648418855.7,286047000.3,N
1648418875.5,286047000.0,N
1648418895.4,286047002.1,N
1648418915.2,286047001.2,N
1648418935.0,286046999.9,N
1648418935.9,286046999.9,N
1648418955.8,286047000.0,N
1648418975.6,286046999.9,N
1648418995.5,286046999.9,N
1648419015.3,286046999.8,N
1648419035.1,286046999.9,N
1648419055.9,286046998.2,N
1648419075.7,286047000.1,N
1648419095.5,286047002.3,N
1648419145.4,286047001.5,E
1648419155.3,286047002.0,N
1648419175.2,286046998.3,P
1648419195.0,286047000.0,N
1648419195.9,286047000.0,N
1648419215.7,286047000.6,N
1648419235.6,286047001.7,N
1648419255.4,286047002.6,N
1648419275.3,286047002.4,N
1648419295.1,286047002.4,N
1648419315.8,286046999.7,N
1648419335.7,286047003.6,N
1648419355.5,286047004.3,N
1648419375.4,286047003.4,N
1648419395.2,286047001.6,N
1648419415.0,286047001.3,N
1648419415.9,286047001.3,N
1648419435.8,286047004.4,N
1648419455.6,286047001.4,N
1648419475.4,286047004.3,N
1648419495.3,286047001.8,N
1648419515.1,286047000.2,N
1648419535.9,286046999.8,N
1648419555.7,286047002.6,N
1648419575.5,286047002.5,N
1648419595.4,286047003.2,N
1648419615.2,286047003.8,N
1648419635.0,286047003.2,N
1648419635.9,286047003.2,N
1648419655.8,286047001.3,N
1648419675.6,286047003.5,N
1648419695.5,286047003.5,N
1648419715.3,286047003.7,N
1648419735.1,286047004.2,N
1648419755.9,286047005.7,Y
1648419775.7,286047002.0,P
1648419795.6,286047001.9,P
1648419815.4,286047004.4,P
1648419835.2,286047001.5,N
1648419855.1,286047001.9,N
1648419856.0,286047001.9,N
1648419875.8,286047002.4,N
1648419895.7,286047002.3,N
1648419915.5,286047002.4,N
1648419935.3,286047000.9,N
1648419955.2,286047001.1,N
1648419975.0,286047002.6,Y
1648419975.9,286047002.6,P
1648419995.7,286046999.2,P
1648420015.6,286047000.5,N
1648420035.4,286047000.9,N
1648420055.3,286047000.4,N
1648420075.1,286046999.3,N
1648420076.0,286046999.3,N
1648420095.8,286047000.7,N
1648420115.7,286046998.7,N
1648420135.5,286046998.3,N
1648420155.4,286047000.7,N
1648420175.2,286047000.5,N
1648420195.0,286046998.1,N
1648420195.9,286046998.1,N
1648420215.8,286046999.6,N
1648420235.6,286046998.7,N
1648420255.4,286046999.0,N
1648420275.3,286046998.7,N
1648420295.1,286046997.3,N
1648420315.9,286046999.3,N
1648420335.7,286046998.2,N
1648420355.5,286046999.6,N
1648420375.4,286046996.8,N
1648420395.2,286046997.7,N
1648420415.0,286046999.4,N
1648420416.0,286046999.4,N
1648420435.8,286046999.4,N
1648420455.6,286046999.2,N
1648420475.5,286046999.4,N
1648420495.3,286046998.4,N
1648420515.1,286047000.1,N
1648420535.9,286046998.4,N
1648420555.7,286046999.5,N
1648420575.6,286046998.5,N
1648420595.4,286046998.6,N
1648420615.2,286046996.6,Y
1648420635.1,286046998.7,P
1648420636.0,286046998.7,P
1648420655.8,286047000.0,N
1648420675.6,286047000.3,N
1648420695.5,286047000.9,N
1648420715.3,286047002.7,Y
1648420735.2,286047001.9,P
1648420755.9,286047001.3,N
1648420775.7,286047001.5,N
1648420795.6,286047002.5,N
1648420815.4,286047001.4,N
1648420835.3,286047004.3,Y
1648420855.1,286047002.7,P
1648420856.0,286047002.7,P
1648420875.8,286047002.3,P
1648420895.7,286046998.1,Y
1648420915.5,286046999.5,P
1648420935.3,286046996.9,N
1648420955.2,286046998.7,N
1648420975.0,286047000.7,N
1648420975.9,286047000.7,N
1648420995.8,286046999.3,N
1648421015.6,286046996.8,N
1648421035.4,286046999.0,N
1648421055.3,286046998.1,N
1648421075.1,286047001.2,N
1648421095.8,286046999.4,N
1648421115.7,286047002.4,N
1648421135.5,286047002.2,N
1648421155.4,286047002.2,N
1648421175.2,286046999.7,N
1648421195.0,286047001.2,N
1648421195.9,286047001.2,N
1648421215.8,286047000.7,N
1648421235.6,286046998.1,N
1648421255.5,286046999.0,N
1648421275.3,286046996.8,N
1648421295.1,286046998.9,N
1648421315.9,286046998.8,N
1648421335.7,286046998.3,N
1648421355.6,286046998.4,N
1648421375.4,286046998.3,N
1648421395.2,286046998.3,N
1648421415.1,286047001.0,N
1648421416.0,286047001.0,N
1648421435.8,286047000.0,N
1648421455.6,286047004.2,N
1648421475.5,286047004.2,N
1648421495.3,286047004.3,N
1648421515.2,286047002.1,N
1648421535.0,286047002.8,N
1648421535.9,286047002.8,N
1648421555.7,286047000.6,N
1648421575.6,286047004.0,N
1648421595.4,286047002.8,N
1648421615.3,286047002.8,N
1648421635.1,286047000.9,N
1648421636.0,286047000.9,N
1648421655.8,286047000.0,N
1648421675.7,286046999.7,N
1648421695.5,286047000.3,N
1648421715.3,286047000.7,N
1648421735.2,286047000.0,N
1648421755.0,286047001.0,N
1648421755.9,286047001.0,N
1648421775.8,286047001.2,N
1648421795.6,286046999.6,N
1648421815.4,286046999.1,N
1648421835.3,286046998.7,N
1648421855.1,286047000.2,N
1648421875.9,286047001.0,N
1648421895.7,286047002.3,N
1648421915.5,286047004.1,N
1648421935.4,286047003.8,N
1648421955.2,286046999.7,N
1648421975.0,286047000.6,N
1648421975.9,286047000.6,N
1648421995.8,286047001.0,N
